{"data":{"norad_id":61957,"epoch":"2026-09-21T02:51:50.810112Z","epoch_age_seconds":132149,"freshness":"FRESH","line1":"1 61957U 24209U   26264.11933808  .00014766  00000+0  44728-3 0  9999","line2":"2 61957  53.1610 305.0066 0001470  83.3371 276.7799 15.34400079104974","mean_motion":15.34400079,"eccentricity":0.000147,"inclination_deg":53.161,"raan_deg":305.0066,"arg_perigee_deg":83.3371,"mean_anomaly_deg":276.7799,"bstar":0.00044728,"rev_number":10497,"period_min":93.847753249497,"perigee_km":461.69740192167,"apogee_km":463.70860888326,"semimajor_km":6840.8400054025,"source":"CELESTRAK","updated_at":"2026-09-22T09:00:49.457427Z"}}